WB4E-13 Weather Reports


time (UTC)temp
F
wind
direction
speed
knots
gust
knots
rain 1hr
in
rain 24hr
in
rain mn
in
humidity
%
barometer
mb
20260906100640 74 16 0.0 0.0 0.00 0.00 0.00 85 1008.7
20260906095722 74 16 0.0 0.0 0.00 0.00 0.00 85 1008.6
20260906095640 74 16 0.0 0.0 0.00 0.00 0.00 85 1008.6
20260906094640 74 16 0.0 0.0 0.00 0.00 0.00 85 1008.6
20260906093640 74 16 0.0 0.0 0.00 0.00 0.00 85 1008.7
20260906092712 74 16 0.0 0.0 0.00 0.00 0.00 85 1008.6
20260906092639 74 16 0.0 0.0 0.00 0.00 0.00 85 1008.6
20260906091639 74 16 0.0 0.0 0.00 0.00 0.00 85 1008.7
20260906090639 74 16 0.0 0.0 0.00 0.00 0.00 85 1008.6
20260906085745 74 16 0.0 0.0 0.00 0.00 0.00 85 1008.5
20260906085710 74 16 0.0 0.0 0.00 0.00 0.00 85 1008.5
20260906085638 74 16 0.0 0.0 0.00 0.00 0.00 85 1008.5
20260906084638 74 350 0.0 0.0 0.00 0.00 0.00 86 1008.6
20260906083638 74 73 0.0 0.0 0.00 0.00 0.00 85 1008.5
20260906082638 74 286 0.0 0.0 0.00 0.00 0.00 85 1008.6
20260906081638 74 286 0.0 0.0 0.00 0.00 0.00 85 1008.8
20260906080638 75 286 0.0 0.0 0.00 0.00 0.00 85 1008.7
20260906075638 75 286 0.0 0.0 0.00 0.00 0.00 85 1008.5
20260906074638 75 342 0.0 0.0 0.00 0.00 0.00 85 1008.4
20260906073637 75 342 0.0 0.0 0.00 0.00 0.00 85 1008.3
20260906072637 75 342 0.0 0.0 0.00 0.00 0.00 85 1008.2
20260906071637 75 342 0.0 0.0 0.00 0.00 0.00 85 1008.1
20260906070710 75 342 0.0 0.0 0.00 0.00 0.00 85 1008.1
20260906070637 75 342 0.0 0.0 0.00 0.00 0.00 85 1008.1
20260906065637 75 342 0.0 0.0 0.00 0.00 0.00 85 1008.2
20260906064637 75 342 0.0 0.0 0.00 0.00 0.00 84 1008.1
20260906063636 76 342 0.0 0.0 0.00 0.00 0.00 84 1008.2
20260906062636 76 342 0.0 0.0 0.00 0.00 0.00 84 1008.3
20260906061636 76 342 0.0 0.0 0.00 0.00 0.00 84 1008.2
20260906060636 76 342 0.0 0.0 0.00 0.00 0.00 84 1008.1
20260906055636 76 342 0.0 0.0 0.00 0.00 0.00 84 1008.2
20260906054636 76 342 0.0 0.0 0.00 0.00 0.00 84 1008.6
20260906053641 76 342 0.0 0.0 0.00 0.00 0.00 84 1008.6
20260906052641 76 342 0.0 0.0 0.00 0.00 0.00 84 1008.8
20260906051640 76 342 0.0 0.0 0.00 0.00 0.00 84 1008.8
20260906050641 77 342 0.0 0.0 0.00 0.00 0.00 84 1009.0
20260906045640 77 342 0.0 0.0 0.00 0.00 0.00 83 1008.9
20260906044640 77 342 0.0 0.0 0.00 0.00 0.00 83 1009.1
20260906043640 77 342 0.0 0.0 0.00 0.00 0.00 83 1009.2
20260906042640 77 342 0.0 0.0 0.00 0.00 0.00 83 1009.3
20260906041640 77 342 0.0 0.0 0.00 0.00 0.00 82 1009.1
20260906040640 77 342 0.0 0.0 0.00 0.00 0.00 82 1009.2
20260906035640 78 342 0.0 0.0 0.00 0.02 0.02 82 1009.1
20260906034640 78 342 0.0 0.0 0.00 0.02 0.02 82 1009.0
20260906033640 78 342 0.0 0.0 0.00 0.02 0.02 82 1009.0
20260906032639 78 342 0.0 0.0 0.00 0.02 0.02 82 1009.0
20260906031639 78 342 0.0 0.0 0.00 0.02 0.02 81 1008.9
20260906030639 78 342 0.0 0.0 0.00 0.02 0.02 81 1009.0
20260906025639 78 342 0.0 0.0 0.00 0.02 0.02 81 1008.9
20260906024639 79 342 0.0 0.0 0.00 0.02 0.02 81 1008.7
20260906023639 79 342 0.0 0.0 0.00 0.02 0.02 81 1008.6
20260906022639 79 342 0.0 0.0 0.00 0.02 0.02 81 1008.5
20260906021638 79 342 0.0 0.0 0.00 0.02 0.02 80 1008.6
20260906020717 79 342 0.0 0.0 0.00 0.02 0.02 80 1008.6
20260906020639 79 342 0.0 0.0 0.00 0.02 0.02 80 1008.6
20260906015638 79 342 0.0 0.0 0.00 0.02 0.02 80 1008.4
20260906014638 80 342 0.0 0.0 0.00 0.02 0.02 80 1008.6
20260906013638 80 342 0.0 0.0 0.00 0.02 0.02 79 1008.8
20260906012708 80 342 0.0 0.0 0.00 0.02 0.02 78 1008.7
20260906012638 80 342 0.0 0.0 0.00 0.02 0.02 78 1008.7
20260906011638 80 296 0.0 0.0 0.00 0.02 0.02 78 1008.3
20260906010638 81 296 0.0 0.0 0.00 0.02 0.02 78 1008.1
20260906005637 81 296 0.0 0.0 0.00 0.02 0.02 77 1008.2
20260906004638 81 296 0.0 0.0 0.00 0.02 0.02 77 1008.0
20260906003637 82 296 0.0 0.0 0.00 0.02 0.02 76 1008.3
20260906002709 82 296 0.0 0.0 0.00 0.02 0.02 76 1008.3
20260906002637 82 296 0.0 0.0 0.00 0.02 0.02 76 1008.3
20260906001637 82 286 0.0 0.0 0.00 0.02 0.02 75 1008.1
20260906000637 83 286 0.0 0.0 0.00 0.02 0.02 75 1008.1
20260905235637 83 286 0.0 0.9 0.00 0.02 0.02 74 1008.2
20260905234636 84 312 0.0 0.9 0.00 0.02 0.02 74 1008.1
20260905233636 84 312 0.9 1.7 0.00 0.02 0.02 74 1008.1
20260905232636 84 304 0.0 2.6 0.00 0.02 0.02 74 1008.0
20260905231720 85 298 0.0 0.0 0.00 0.02 0.02 76 1007.9
20260905231641 85 298 0.0 0.0 0.00 0.02 0.02 76 1007.9
20260905230849 85 274 0.0 0.0 0.00 0.02 0.02 75 1007.8
20260905230641 85 274 0.0 0.0 0.00 0.02 0.02 75 1007.8
20260905225639 86 269 0.0 0.9 0.00 0.02 0.02 75 1007.8
20260905224639 86 280 0.9 0.0 0.00 0.02 0.02 76 1007.8
20260905223639 86 276 0.0 0.9 0.00 0.02 0.02 75 1007.5
20260905222639 86 276 0.0 2.6 0.00 0.02 0.02 76 1007.5
20260905221638 86 190 0.0 0.9 0.00 0.02 0.02 76 1007.5
20260905220637 86 355 0.9 1.7 0.00 0.02 0.02 76 1007.5
20260905215810 86 290 0.0 1.7 0.00 0.02 0.02 76 1007.8
20260905215637 86 290 0.0 1.7 0.00 0.02 0.02 76 1007.8
20260905214637 86 295 0.9 0.9 0.00 0.02 0.02 77 1008.0
20260905213637 86 254 0.0 2.6 0.00 0.02 0.02 77 1008.1
20260905212637 86 103 0.0 0.0 0.00 0.02 0.02 76 1008.0
20260905211637 86 188 0.0 2.6 0.00 0.02 0.02 77 1008.0
20260905210636 85 305 0.0 0.9 0.00 0.02 0.02 78 1008.0
20260905205636 85 198 0.0 1.7 0.00 0.02 0.02 77 1008.1
20260905204640 85 259 0.0 0.9 0.00 0.02 0.02 78 1008.2
20260905203640 84 30 0.9 1.7 0.00 0.02 0.02 79 1008.2
20260905202640 84 211 0.0 0.0 0.00 0.02 0.02 80 1008.5
20260905201640 83 211 0.0 0.0 0.00 0.02 0.02 81 1008.7
20260905200639 83 211 0.0 0.9 0.00 0.02 0.02 82 1008.6
20260905195639 82 211 0.0 0.9 0.00 0.02 0.02 83 1008.7
20260905194639 82 211 0.0 1.7 0.00 0.02 0.02 83 1009.0
20260905193639 82 265 0.0 0.9 0.00 0.02 0.02 83 1009.1
20260905192638 82 265 0.0 0.0 0.00 0.02 0.02 82 1009.1
20260905191638 82 265 0.0 0.0 0.00 0.02 0.02 82 1009.4
20260905190638 82 265 0.0 3.5 0.00 0.02 0.02 81 1009.6
20260905185638 82 261 1.7 2.6 0.01 0.02 0.02 81 1009.5
20260905184637 82 274 1.7 3.5 0.02 0.02 0.02 80 1009.9
20260905183637 83 255 0.0 2.6 0.02 0.02 0.02 80 1009.3
20260905182637 84 271 0.9 0.9 0.02 0.02 0.02 79 1009.4
20260905180637 87 283 1.7 2.6 0.02 0.02 0.02 73 1009.6
20260905175637 90 245 0.9 9.6 0.01 0.01 0.01 68 1009.8
20260905174748 92 232 0.0 7.0 0.00 0.00 0.00 62 1009.8
20260905174708 92 232 0.0 7.0 0.00 0.00 0.00 62 1009.8
20260905174636 92 232 0.0 7.0 0.00 0.00 0.00 62 1009.8
20260905173636 93 279 0.0 1.7 0.00 0.00 0.00 58 1010.0
20260905172636 93 252 0.9 5.2 0.00 0.00 0.00 56 1010.0
20260905171641 93 244 0.9 1.7 0.00 0.00 0.00 58 1009.6
20260905171021 92 232 0.0 2.6 0.00 0.00 0.00 58 1009.8
20260905170641 92 232 0.0 2.6 0.00 0.00 0.00 58 1009.8
20260905165640 92 355 0.0 3.5 0.00 0.00 0.00 61 1009.9
20260905164640 90 32 0.0 1.7 0.00 0.00 0.00 64 1010.3
20260905163640 90 45 2.6 0.9 0.00 0.00 0.00 64 1010.3
20260905162639 90 210 0.9 0.9 0.00 0.00 0.00 65 1010.4
20260905161639 89 222 0.0 0.9 0.00 0.00 0.00 68 1010.4
20260905160712 88 222 0.9 1.7 0.00 0.00 0.00 68 1010.4
20260905160638 88 222 0.9 1.7 0.00 0.00 0.00 68 1010.4
20260905155637 88 229 0.0 3.5 0.00 0.00 0.00 69 1010.4
20260905154637 87 271 3.5 0.0 0.00 0.00 0.00 69 1010.5
20260905153712 87 281 0.0 0.0 0.00 0.00 0.00 72 1010.5
20260905153637 87 281 0.0 0.0 0.00 0.00 0.00 72 1010.5
20260905152637 86 122 0.0 0.0 0.00 0.00 0.00 73 1010.5
20260905151636 85 109 0.0 0.0 0.00 0.00 0.00 74 1010.7
20260905150636 85 229 0.0 0.0 0.00 0.00 0.00 75 1010.7
20260905145636 85 229 0.0 0.0 0.00 0.00 0.00 75 1010.8
20260905144713 84 136 0.0 0.0 0.00 0.00 0.00 76 1010.8
20260905144641 84 136 0.0 0.0 0.00 0.00 0.00 76 1010.8
20260905143641 83 171 0.0 0.0 0.00 0.00 0.00 78 1010.9
20260905142641 82 247 0.0 0.0 0.00 0.00 0.00 79 1010.9
20260905141733 82 296 0.0 0.0 0.00 0.00 0.00 80 1011.0
20260905141640 82 296 0.0 0.0 0.00 0.00 0.00 80 1011.0
20260905140640 81 296 0.0 0.0 0.00 0.00 0.00 80 1011.1
20260905135639 81 325 0.0 0.0 0.00 0.00 0.00 81 1011.1
20260905134639 80 325 0.0 0.0 0.00 0.00 0.00 81 1011.2
20260905133710 79 325 0.0 0.0 0.00 0.00 0.00 82 1011.4
20260905133639 79 325 0.0 0.0 0.00 0.00 0.00 82 1011.4
20260905132638 79 273 0.0 0.0 0.00 0.00 0.00 82 1011.4
20260905131638 78 286 0.0 0.0 0.00 0.00 0.00 83 1011.5
20260905130638 77 292 0.0 0.0 0.00 0.00 0.00 84 1011.6
20260905125638 77 292 0.0 0.0 0.00 0.00 0.00 85 1011.6
20260905124638 76 292 0.0 0.0 0.00 0.00 0.00 86 1011.5
20260905123637 76 292 0.0 0.0 0.00 0.00 0.00 86 1011.5
20260905122637 76 292 0.0 0.0 0.00 0.00 0.00 86 1011.4
20260905121637 75 292 0.0 0.0 0.00 0.00 0.00 86 1011.4
20260905120637 75 292 0.0 0.0 0.00 0.00 0.00 85 1011.3
20260905115637 75 292 0.0 0.0 0.00 0.00 0.00 85 1011.1
20260905114637 75 292 0.0 0.0 0.00 0.00 0.00 85 1011.0
20260905113726 75 292 0.0 0.0 0.00 0.00 0.00 85 1010.8
20260905113637 75 292 0.0 0.0 0.00 0.00 0.00 85 1010.8
20260905112709 75 292 0.0 0.0 0.00 0.00 0.00 85 1010.7
20260905112636 75 292 0.0 0.0 0.00 0.00 0.00 85 1010.7
20260905111733 75 292 0.0 0.0 0.00 0.00 0.00 85 1010.6
20260905111636 75 292 0.0 0.0 0.00 0.00 0.00 85 1010.6
20260905110712 75 292 0.0 0.0 0.00 0.00 0.00 85 1010.4
20260905110640 75 292 0.0 0.0 0.00 0.00 0.00 85 1010.4
20260905105718 75 292 0.0 0.0 0.00 0.00 0.00 84 1010.3
20260905105640 75 292 0.0 0.0 0.00 0.00 0.00 84 1010.3
20260905104715 75 292 0.0 0.0 0.00 0.00 0.00 84 1010.3
20260905104640 75 292 0.0 0.0 0.00 0.00 0.00 84 1010.3
20260905103640 76 292 0.0 0.0 0.00 0.00 0.00 84 1010.1
20260905102639 76 292 0.0 0.0 0.00 0.00 0.00 84 1010.0
20260905101712 76 292 0.0 0.0 0.00 0.00 0.00 84 1009.8
20260905101639 76 292 0.0 0.0 0.00 0.00 0.00 84 1009.8